KDAY Airport Diagram

We have created a template for each of the higher traffic airports in the vZID airspace. They include KCMH, KCRW, KCVG, KDAY, KIND, KLEX and KSDF. You wil find usefull information including the airport diagram, weather, and specific airport procedures.

KDAY Weather

[Source: ADDS]
METAR
KDAY 181356Z 00000KT 6SM BR FEW250 M02/M04 A3025 RMK AO2 SLP254 T10171039 =
KDAY 181128Z 1812/1912 33005KT P6SM SKC FM181300 02005KT P6SM FEW250 FM190300 16004KT P6SM FEW250
TAF
KDAY 181128Z 1812/1912 33005KT P6SM SKC FM181300 02005KT P6SM FEW250 FM190300 16004KT P6SM FEW250 =

KDAY Operations

Approach/Departure operations for KDAY were consolidated into the Columbus TRACON quite some time back. We have recently made that change here at ZID. When arriving/departing the Dayton Airport and airports in the surrounding area, contact with the Columbus APP/DEP controller, if online, should be expected.

Calm Wind Configuration is runways 24L/R. This configuration is used up to and including 10kts.

Runway 24L typically departs south and east, except larger aircraft requiring a longer runway.

Runway 24R typically departs north and west.

 

JSN Epic template designed by JoomlaShine.com